Wetterdaten: Mittwoch, 29.04.2015
Datum Zeit Auen-Temp. Temp gefhlt Luftfeuchte Luftdruck Regen Wind Richtung Richtung Taupunkt Windben
29.04.2015 00:00 2,4 C 2,1 C 85 % 1019,8 hPa 0,0 mm 0,0 km/h (0 Bft) S-SO 157 0,1 C 0,0 km/h (0 Bft)
29.04.2015 00:05 2,6 C 2,2 C 88 % 1019,8 hPa 0,0 mm 0,0 km/h (0 Bft) O-NO 67 0,8 C 0,0 km/h (0 Bft)
29.04.2015 00:10 2,6 C 2,2 C 88 % 1019,8 hPa 0,0 mm 0,3 km/h (0 Bft) O 90 0,8 C 2,6 km/h (1 Bft)
29.04.2015 00:15 2,6 C 2,3 C 88 % 1019,8 hPa 0,0 mm 0,3 km/h (0 Bft) SO 135 0,8 C 0,0 km/h (0 Bft)
29.04.2015 00:20 2,6 C 2,2 C 88 % 1019,8 hPa 0,0 mm 0,0 km/h (0 Bft) O-NO 67 0,8 C 0,0 km/h (0 Bft)
29.04.2015 00:25 2,6 C 2,2 C 88 % 1019,8 hPa 0,0 mm 0,0 km/h (0 Bft) O-NO 67 0,8 C 3,9 km/h (1 Bft)
29.04.2015 00:30 2,4 C 2,1 C 88 % 1019,8 hPa 0,0 mm 0,0 km/h (0 Bft) W 270 0,6 C 0,0 km/h (0 Bft)
29.04.2015 00:35 2,4 C 2,1 C 88 % 1019,9 hPa 0,0 mm 0,0 km/h (0 Bft) O 90 0,6 C 0,0 km/h (0 Bft)
29.04.2015 00:40 2,3 C 2,0 C 88 % 1019,9 hPa 0,0 mm 0,0 km/h (0 Bft) N-NW 337 0,5 C 0,0 km/h (0 Bft)
29.04.2015 00:45 2,4 C 2,1 C 85 % 1019,9 hPa 0,0 mm 0,0 km/h (0 Bft) O-SO 112 0,1 C 0,0 km/h (0 Bft)
29.04.2015 00:50 2,4 C 2,0 C 88 % 1019,9 hPa 0,0 mm 0,0 km/h (0 Bft) O-SO 112 0,6 C 0,0 km/h (0 Bft)
29.04.2015 00:55 2,4 C 2,1 C 85 % 1019,7 hPa 0,0 mm 0,0 km/h (0 Bft) O 90 0,1 C 0,0 km/h (0 Bft)
29.04.2015 01:00 2,4 C 2,0 C 88 % 1019,7 hPa 0,0 mm 0,0 km/h (0 Bft) SO 135 0,6 C 0,0 km/h (0 Bft)
29.04.2015 01:05 2,3 C 1,9 C 88 % 1019,7 hPa 0,0 mm 0,0 km/h (0 Bft) O-SO 112 0,5 C 0,0 km/h (0 Bft)
29.04.2015 01:10 2,2 C 1,8 C 88 % 1019,7 hPa 0,0 mm 0,0 km/h (0 Bft) O-SO 112 0,4 C 0,0 km/h (0 Bft)
29.04.2015 01:15 2,2 C 1,8 C 88 % 1019,7 hPa 0,0 mm 0,0 km/h (0 Bft) SO 135 0,4 C 0,0 km/h (0 Bft)
29.04.2015 01:20 2,3 C 1,9 C 88 % 1019,7 hPa 0,0 mm 1,3 km/h (1 Bft) S-SO 157 0,5 C 8,0 km/h (2 Bft)
29.04.2015 01:25 2,1 C 1,8 C 88 % 1019,7 hPa 0,0 mm 1,3 km/h (1 Bft) O-SO 112 0,3 C 14,8 km/h (3 Bft)
29.04.2015 01:30 2,1 C 1,7 C 88 % 1019,7 hPa 0,0 mm 0,3 km/h (0 Bft) S 180 0,3 C 3,1 km/h (1 Bft)
29.04.2015 01:35 2,1 C 1,7 C 88 % 1019,6 hPa 0,0 mm 0,3 km/h (0 Bft) S-SO 157 0,3 C 0,0 km/h (0 Bft)
29.04.2015 01:40 2,0 C 1,6 C 88 % 1019,6 hPa 0,0 mm 0,3 km/h (0 Bft) S-SO 157 0,2 C 0,0 km/h (0 Bft)
29.04.2015 01:45 1,9 C 1,5 C 88 % 1019,6 hPa 0,0 mm 0,0 km/h (0 Bft) SW 225 0,1 C 0,0 km/h (0 Bft)
29.04.2015 01:50 1,9 C 1,5 C 88 % 1019,6 hPa 0,0 mm 0,0 km/h (0 Bft) SO 135 0,1 C 0,0 km/h (0 Bft)
29.04.2015 01:55 1,9 C 1,4 C 88 % 1019,4 hPa 0,0 mm 0,0 km/h (0 Bft) O-SO 112 0,1 C 0,0 km/h (0 Bft)
29.04.2015 02:00 1,7 C 1,2 C 88 % 1019,4 hPa 0,0 mm 0,0 km/h (0 Bft) O-SO 112 -0,1 C 0,0 km/h (0 Bft)
29.04.2015 02:05 1,5 C 1,1 C 88 % 1019,4 hPa 0,0 mm 0,0 km/h (0 Bft) O-SO 112 -0,3 C 0,0 km/h (0 Bft)
29.04.2015 02:10 1,4 C 0,9 C 88 % 1019,4 hPa 0,0 mm 0,0 km/h (0 Bft) O-SO 112 -0,4 C 0,0 km/h (0 Bft)
29.04.2015 02:15 1,3 C 0,8 C 88 % 1019,2 hPa 0,0 mm 0,0 km/h (0 Bft) O-SO 112 -0,5 C 0,0 km/h (0 Bft)
29.04.2015 02:20 1,2 C 0,7 C 88 % 1019,2 hPa 0,0 mm 0,0 km/h (0 Bft) W 270 -0,6 C 0,0 km/h (0 Bft)
29.04.2015 02:25 1,3 C 0,8 C 88 % 1019,2 hPa 0,0 mm 0,3 km/h (0 Bft) W-SW 247 -0,5 C 4,1 km/h (1 Bft)
29.04.2015 02:30 1,1 C 0,6 C 88 % 1019,2 hPa 0,0 mm 0,3 km/h (0 Bft) W 270 -0,7 C 0,0 km/h (0 Bft)
29.04.2015 02:35 0,8 C 0,4 C 88 % 1018,9 hPa 0,0 mm 0,3 km/h (0 Bft) W-NW 292 -1,0 C 0,0 km/h (0 Bft)
29.04.2015 02:40 1,0 C 0,5 C 88 % 1018,9 hPa 0,0 mm 0,0 km/h (0 Bft) N-NO 22 -0,8 C 0,0 km/h (0 Bft)
29.04.2015 02:45 0,8 C 0,2 C 88 % 1018,9 hPa 0,0 mm 0,0 km/h (0 Bft) N-NO 22 -1,0 C 0,0 km/h (0 Bft)
29.04.2015 02:50 0,6 C 0,1 C 88 % 1018,9 hPa 0,0 mm 0,0 km/h (0 Bft) N-NO 22 -1,2 C 0,0 km/h (0 Bft)
29.04.2015 02:55 0,6 C 0,1 C 88 % 1018,9 hPa 0,0 mm 0,0 km/h (0 Bft) N-NO 22 -1,2 C 0,0 km/h (0 Bft)
29.04.2015 03:00 0,3 C -0,2 C 88 % 1018,9 hPa 0,0 mm 0,0 km/h (0 Bft) N-NO 22 -1,4 C 0,0 km/h (0 Bft)
29.04.2015 03:05 0,4 C -0,2 C 89 % 1018,9 hPa 0,0 mm 0,0 km/h (0 Bft) N-NO 22 -1,2 C 0,0 km/h (0 Bft)
29.04.2015 03:10 0,5 C -0,1 C 89 % 1018,9 hPa 0,0 mm 0,0 km/h (0 Bft) N-NO 22 -1,1 C 0,0 km/h (0 Bft)
29.04.2015 03:15 0,4 C -0,2 C 89 % 1018,9 hPa 0,0 mm 0,0 km/h (0 Bft) N-NO 22 -1,2 C 0,0 km/h (0 Bft)
29.04.2015 03:20 0,3 C -0,3 C 89 % 1018,9 hPa 0,0 mm 0,0 km/h (0 Bft) W-SW 247 -1,3 C 0,0 km/h (0 Bft)
29.04.2015 03:25 0,0 C -0,5 C 89 % 1018,9 hPa 0,0 mm 0,0 km/h (0 Bft) W 270 -1,6 C 0,0 km/h (0 Bft)
29.04.2015 03:30 0,0 C -0,5 C 89 % 1018,9 hPa 0,0 mm 0,0 km/h (0 Bft) W 270 -1,6 C 0,0 km/h (0 Bft)
29.04.2015 03:35 0,1 C -0,5 C 89 % 1018,9 hPa 0,0 mm 0,0 km/h (0 Bft) W-NW 292 -1,5 C 0,0 km/h (0 Bft)
29.04.2015 03:40 0,2 C -0,4 C 89 % 1018,9 hPa 0,0 mm 0,0 km/h (0 Bft) W 270 -1,4 C 0,0 km/h (0 Bft)
29.04.2015 03:45 0,2 C -0,3 C 89 % 1018,9 hPa 0,0 mm 0,0 km/h (0 Bft) N-NW 337 -1,4 C 0,0 km/h (0 Bft)
29.04.2015 03:50 0,0 C -0,5 C 89 % 1018,9 hPa 0,0 mm 0,0 km/h (0 Bft) N-NW 337 -1,6 C 0,0 km/h (0 Bft)
29.04.2015 03:55 0,0 C -0,5 C 89 % 1018,9 hPa 0,0 mm 0,0 km/h (0 Bft) N-NW 337 -1,6 C 0,0 km/h (0 Bft)
29.04.2015 04:00 0,1 C -0,4 C 89 % 1018,9 hPa 0,0 mm 0,0 km/h (0 Bft) N-NO 22 -1,5 C 0,0 km/h (0 Bft)
29.04.2015 04:05 0,2 C -0,3 C 89 % 1018,9 hPa 0,0 mm 0,0 km/h (0 Bft) O-NO 67 -1,4 C 0,0 km/h (0 Bft)
29.04.2015 04:10 0,3 C -0,3 C 89 % 1018,9 hPa 0,0 mm 0,0 km/h (0 Bft) O 90 -1,3 C 0,0 km/h (0 Bft)
29.04.2015 04:15 0,0 C -0,5 C 89 % 1019,0 hPa 0,0 mm 0,0 km/h (0 Bft) NO 45 -1,6 C 0,0 km/h (0 Bft)
29.04.2015 04:20 -0,3 C -0,7 C 89 % 1019,0 hPa 0,0 mm 0,0 km/h (0 Bft) NO 45 -1,9 C 0,0 km/h (0 Bft)
29.04.2015 04:25 -0,4 C -0,8 C 89 % 1019,0 hPa 0,0 mm 0,0 km/h (0 Bft) NO 45 -2,0 C 0,0 km/h (0 Bft)
29.04.2015 04:30 -0,5 C -0,9 C 89 % 1019,0 hPa 0,0 mm 0,0 km/h (0 Bft) N-NO 22 -2,1 C 0,0 km/h (0 Bft)
29.04.2015 04:35 -0,6 C -1,0 C 89 % 1019,0 hPa 0,0 mm 0,0 km/h (0 Bft) N-NO 22 -2,2 C 0,0 km/h (0 Bft)
29.04.2015 04:40 -0,4 C -1,0 C 89 % 1019,0 hPa 0,0 mm 0,0 km/h (0 Bft) O 90 -2,0 C 0,0 km/h (0 Bft)
29.04.2015 04:45 -0,6 C -1,1 C 89 % 1019,0 hPa 0,0 mm 0,0 km/h (0 Bft) N-NO 22 -2,2 C 0,0 km/h (0 Bft)
29.04.2015 04:50 -0,6 C -1,1 C 89 % 1019,0 hPa 0,0 mm 0,0 km/h (0 Bft) N-NO 22 -2,2 C 0,0 km/h (0 Bft)
29.04.2015 04:55 -0,5 C -0,9 C 89 % 1018,8 hPa 0,0 mm 0,0 km/h (0 Bft) N-NO 22 -2,1 C 0,0 km/h (0 Bft)
29.04.2015 05:00 -0,7 C -1,0 C 89 % 1018,8 hPa 0,0 mm 0,0 km/h (0 Bft) N-NO 22 -2,3 C 0,0 km/h (0 Bft)
29.04.2015 05:05 -0,7 C -1,1 C 89 % 1018,8 hPa 0,0 mm 0,0 km/h (0 Bft) N-NO 22 -2,3 C 0,0 km/h (0 Bft)
29.04.2015 05:10 -0,6 C -1,0 C 89 % 1018,8 hPa 0,0 mm 0,0 km/h (0 Bft) N-NO 22 -2,2 C 0,0 km/h (0 Bft)
29.04.2015 05:15 -0,9 C -1,3 C 89 % 1018,5 hPa 0,0 mm 0,0 km/h (0 Bft) N-NO 22 -2,5 C 0,0 km/h (0 Bft)
29.04.2015 05:20 -0,9 C -1,3 C 89 % 1018,5 hPa 0,0 mm 0,0 km/h (0 Bft) N-NO 22 -2,5 C 0,0 km/h (0 Bft)
29.04.2015 05:25 -0,5 C -1,0 C 86 % 1018,5 hPa 0,0 mm 0,0 km/h (0 Bft) N-NO 22 -2,5 C 0,0 km/h (0 Bft)
29.04.2015 05:30 -0,7 C -1,2 C 90 % 1018,5 hPa 0,0 mm 0,0 km/h (0 Bft) N-NO 22 -2,1 C 0,0 km/h (0 Bft)
29.04.2015 05:35 -1,0 C -1,4 C 89 % 1018,4 hPa 0,0 mm 0,0 km/h (0 Bft) N-NO 22 -2,6 C 0,0 km/h (0 Bft)
29.04.2015 05:40 -0,9 C -1,3 C 89 % 1018,4 hPa 0,0 mm 0,0 km/h (0 Bft) N-NO 22 -2,5 C 0,0 km/h (0 Bft)
29.04.2015 05:45 -0,6 C -1,1 C 90 % 1018,4 hPa 0,0 mm 0,0 km/h (0 Bft) N-NO 22 -2,0 C 0,0 km/h (0 Bft)
29.04.2015 05:50 -0,8 C -1,2 C 90 % 1018,4 hPa 0,0 mm 0,0 km/h (0 Bft) N-NO 22 -2,2 C 0,0 km/h (0 Bft)
29.04.2015 05:55 -1,0 C -1,4 C 90 % 1018,4 hPa 0,0 mm 0,0 km/h (0 Bft) N-NO 22 -2,4 C 0,0 km/h (0 Bft)
29.04.2015 06:00 -1,2 C -1,5 C 89 % 1018,4 hPa 0,0 mm 0,0 km/h (0 Bft) N-NO 22 -2,8 C 0,0 km/h (0 Bft)
29.04.2015 06:05 -1,2 C -1,6 C 89 % 1018,4 hPa 0,0 mm 0,0 km/h (0 Bft) N-NO 22 -2,8 C 0,0 km/h (0 Bft)
29.04.2015 06:10 -1,1 C -1,6 C 90 % 1018,4 hPa 0,0 mm 0,0 km/h (0 Bft) N-NO 22 -2,5 C 0,0 km/h (0 Bft)
29.04.2015 06:15 -1,2 C -1,7 C 90 % 1018,3 hPa 0,0 mm 0,0 km/h (0 Bft) N-NO 22 -2,6 C 0,0 km/h (0 Bft)
29.04.2015 06:20 -1,2 C -1,6 C 89 % 1018,3 hPa 0,0 mm 0,0 km/h (0 Bft) N-NO 22 -2,8 C 0,0 km/h (0 Bft)
29.04.2015 06:25 -0,8 C -1,2 C 86 % 1018,3 hPa 0,0 mm 0,0 km/h (0 Bft) N-NO 22 -2,8 C 0,0 km/h (0 Bft)
29.04.2015 06:30 -0,9 C -1,3 C 90 % 1018,3 hPa 0,0 mm 0,0 km/h (0 Bft) N-NO 22 -2,3 C 0,0 km/h (0 Bft)
29.04.2015 06:35 -0,9 C -1,2 C 90 % 1018,2 hPa 0,0 mm 0,0 km/h (0 Bft) N-NO 22 -2,3 C 0,0 km/h (0 Bft)
29.04.2015 06:40 -0,7 C -1,0 C 90 % 1018,2 hPa 0,0 mm 0,0 km/h (0 Bft) N-NO 22 -2,1 C 0,0 km/h (0 Bft)
29.04.2015 06:45 -0,8 C -1,0 C 90 % 1018,2 hPa 0,0 mm 0,0 km/h (0 Bft) N-NO 22 -2,2 C 0,0 km/h (0 Bft)
29.04.2015 06:50 -0,6 C -0,8 C 90 % 1018,2 hPa 0,0 mm 0,0 km/h (0 Bft) N-NO 22 -2,0 C 0,0 km/h (0 Bft)
29.04.2015 06:55 -0,5 C -0,7 C 90 % 1018,4 hPa 0,0 mm 0,0 km/h (0 Bft) N-NO 22 -1,9 C 0,0 km/h (0 Bft)
29.04.2015 07:00 -0,4 C -0,5 C 87 % 1018,4 hPa 0,0 mm 0,0 km/h (0 Bft) N-NO 22 -2,3 C 0,0 km/h (0 Bft)
29.04.2015 07:05 -0,4 C -0,2 C 87 % 1018,4 hPa 0,0 mm 0,0 km/h (0 Bft) N-NO 22 -2,3 C 0,0 km/h (0 Bft)
29.04.2015 07:10 -0,3 C -0,1 C 87 % 1018,4 hPa 0,0 mm 0,0 km/h (0 Bft) N-NO 22 -2,2 C 0,0 km/h (0 Bft)
29.04.2015 07:15 -0,1 C 0,1 C 87 % 1018,1 hPa 0,0 mm 0,0 km/h (0 Bft) N-NO 22 -2,0 C 0,0 km/h (0 Bft)
29.04.2015 07:20 0,1 C 0,5 C 87 % 1018,1 hPa 0,0 mm 0,0 km/h (0 Bft) N-NO 22 -1,8 C 0,0 km/h (0 Bft)
29.04.2015 07:25 0,3 C 1,4 C 87 % 1018,1 hPa 0,0 mm 0,0 km/h (0 Bft) N-NO 22 -1,6 C 0,0 km/h (0 Bft)
29.04.2015 07:30 0,5 C 2,2 C 87 % 1018,1 hPa 0,0 mm 0,0 km/h (0 Bft) N-NO 22 -1,4 C 0,0 km/h (0 Bft)
29.04.2015 07:35 0,9 C 3,7 C 87 % 1017,9 hPa 0,0 mm 0,0 km/h (0 Bft) N-NO 22 -1,0 C 0,0 km/h (0 Bft)
29.04.2015 07:40 1,7 C 6,4 C 87 % 1017,9 hPa 0,7 mm 0,0 km/h (0 Bft) N-NO 22 -0,2 C 0,0 km/h (0 Bft)
29.04.2015 07:45 2,7 C 8,5 C 91 % 1017,9 hPa 0,0 mm 0,0 km/h (0 Bft) N-NO 22 1,4 C 0,0 km/h (0 Bft)
29.04.2015 07:50 2,7 C 9,2 C 91 % 1017,9 hPa 0,0 mm 0,0 km/h (0 Bft) NO 45 1,4 C 0,0 km/h (0 Bft)
29.04.2015 07:55 3,2 C 9,8 C 90 % 1017,9 hPa 0,0 mm 0,0 km/h (0 Bft) N-NO 22 1,7 C 0,0 km/h (0 Bft)
29.04.2015 08:00 3,6 C 10,9 C 86 % 1017,9 hPa 0,0 mm 0,0 km/h (0 Bft) N-NW 337 1,5 C 0,0 km/h (0 Bft)
29.04.2015 08:05 3,9 C 11,1 C 86 % 1017,9 hPa 0,0 mm 0,0 km/h (0 Bft) N-NW 337 1,8 C 0,0 km/h (0 Bft)
29.04.2015 08:10 4,4 C 11,7 C 86 % 1017,9 hPa 0,0 mm 0,0 km/h (0 Bft) N 360 2,3 C 0,0 km/h (0 Bft)
29.04.2015 08:15 5,0 C 12,3 C 86 % 1017,9 hPa 0,0 mm 0,0 km/h (0 Bft) N-NW 337 2,9 C 0,0 km/h (0 Bft)
29.04.2015 08:20 5,3 C 13,2 C 85 % 1017,9 hPa 0,0 mm 0,0 km/h (0 Bft) O-SO 112 3,0 C 0,0 km/h (0 Bft)
29.04.2015 08:25 5,9 C 14,4 C 85 % 1017,9 hPa 0,0 mm 0,0 km/h (0 Bft) W 270 3,6 C 0,0 km/h (0 Bft)
29.04.2015 08:30 6,4 C 14,8 C 83 % 1017,9 hPa 0,0 mm 0,0 km/h (0 Bft) W-SW 247 3,7 C 0,0 km/h (0 Bft)
29.04.2015 08:35 6,8 C 15,0 C 83 % 1017,7 hPa 0,0 mm 0,0 km/h (0 Bft) NW 315 4,1 C 0,0 km/h (0 Bft)
29.04.2015 08:40 6,8 C 14,8 C 82 % 1017,7 hPa 0,0 mm 1,0 km/h (0 Bft) N-NW 337 3,9 C 0,0 km/h (0 Bft)
29.04.2015 08:45 7,1 C 15,2 C 80 % 1017,7 hPa 0,0 mm 1,8 km/h (1 Bft) SO 135 3,9 C 21,2 km/h (4 Bft)
29.04.2015 08:50 6,9 C 14,2 C 79 % 1017,7 hPa 0,0 mm 4,1 km/h (1 Bft) O-NO 67 3,5 C 13,2 km/h (3 Bft)
29.04.2015 08:55 6,7 C 13,2 C 76 % 1017,5 hPa 0,0 mm 8,0 km/h (2 Bft) NO 45 2,8 C 12,9 km/h (3 Bft)
29.04.2015 09:00 6,8 C 11,9 C 75 % 1017,5 hPa 0,0 mm 10,4 km/h (2 Bft) O-NO 67 2,7 C 14,8 km/h (3 Bft)
29.04.2015 09:05 7,0 C 11,7 C 73 % 1017,5 hPa 0,0 mm 10,1 km/h (2 Bft) SO 135 2,5 C 9,3 km/h (2 Bft)
29.04.2015 09:10 7,2 C 12,5 C 73 % 1017,5 hPa 0,0 mm 8,5 km/h (2 Bft) N-NO 22 2,7 C 6,7 km/h (2 Bft)
29.04.2015 09:15 7,5 C 12,7 C 72 % 1017,7 hPa 0,0 mm 7,8 km/h (2 Bft) W 270 2,8 C 10,4 km/h (2 Bft)
29.04.2015 09:20 7,3 C 12,5 C 70 % 1017,7 hPa 0,0 mm 8,3 km/h (2 Bft) N-NO 22 2,2 C 9,8 km/h (2 Bft)
29.04.2015 09:25 7,1 C 11,6 C 69 % 1017,7 hPa 0,0 mm 10,9 km/h (2 Bft) NO 45 1,8 C 14,0 km/h (3 Bft)
29.04.2015 09:30 7,2 C 11,6 C 69 % 1017,7 hPa 0,0 mm 10,6 km/h (2 Bft) N 360 1,9 C 15,3 km/h (3 Bft)
29.04.2015 09:35 7,3 C 11,4 C 69 % 1017,8 hPa 0,0 mm 11,4 km/h (2 Bft) NO 45 2,0 C 22,0 km/h (4 Bft)
29.04.2015 09:40 7,3 C 11,4 C 69 % 1017,8 hPa 0,0 mm 12,4 km/h (3 Bft) O-NO 67 2,0 C 14,5 km/h (3 Bft)
29.04.2015 09:45 7,3 C 11,1 C 68 % 1017,8 hPa 0,0 mm 12,4 km/h (3 Bft) NO 45 1,8 C 24,6 km/h (4 Bft)
29.04.2015 09:50 7,5 C 11,5 C 68 % 1017,8 hPa 0,0 mm 12,4 km/h (3 Bft) NO 45 2,0 C 14,5 km/h (3 Bft)
29.04.2015 09:55 7,5 C 11,3 C 68 % 1017,9 hPa 0,0 mm 14,0 km/h (3 Bft) O-NO 67 2,0 C 25,6 km/h (4 Bft)
29.04.2015 10:00 7,7 C 11,4 C 68 % 1017,9 hPa 0,0 mm 13,2 km/h (3 Bft) O-NO 67 2,2 C 12,7 km/h (3 Bft)
29.04.2015 10:05 7,8 C 11,8 C 67 % 1017,9 hPa 0,0 mm 11,4 km/h (2 Bft) NO 45 2,1 C 16,8 km/h (3 Bft)
29.04.2015 10:10 8,0 C 12,2 C 67 % 1017,9 hPa 0,0 mm 10,9 km/h (2 Bft) NO 45 2,3 C 6,7 km/h (2 Bft)
29.04.2015 10:15 7,7 C 11,9 C 67 % 1017,8 hPa 0,0 mm 10,6 km/h (2 Bft) NO 45 2,0 C 10,1 km/h (2 Bft)
29.04.2015 10:20 7,9 C 11,4 C 66 % 1017,8 hPa 0,0 mm 10,1 km/h (2 Bft) NO 45 1,9 C 16,3 km/h (3 Bft)
29.04.2015 10:25 8,1 C 11,8 C 64 % 1017,8 hPa 0,0 mm 12,4 km/h (3 Bft) O-NO 67 1,7 C 27,4 km/h (4 Bft)
29.04.2015 10:30 8,1 C 11,9 C 63 % 1017,8 hPa 0,0 mm 14,2 km/h (3 Bft) O 90 1,5 C 15,5 km/h (3 Bft)
29.04.2015 10:35 8,3 C 11,9 C 63 % 1017,9 hPa 0,0 mm 14,0 km/h (3 Bft) SO 135 1,7 C 8,0 km/h (2 Bft)
29.04.2015 10:40 8,2 C 11,8 C 62 % 1017,9 hPa 0,0 mm 14,2 km/h (3 Bft) NO 45 1,4 C 21,2 km/h (4 Bft)
29.04.2015 10:45 8,4 C 11,5 C 62 % 1017,9 hPa 0,0 mm 14,2 km/h (3 Bft) O-NO 67 1,6 C 18,4 km/h (3 Bft)
29.04.2015 10:50 8,5 C 12,1 C 62 % 1017,9 hPa 0,0 mm 11,9 km/h (2 Bft) NO 45 1,6 C 11,1 km/h (2 Bft)
29.04.2015 10:55 8,7 C 12,2 C 61 % 1017,8 hPa 0,0 mm 11,7 km/h (2 Bft) N-NO 22 1,6 C 11,1 km/h (2 Bft)
29.04.2015 11:00 8,9 C 12,6 C 61 % 1017,8 hPa 0,0 mm 11,9 km/h (2 Bft) O-NO 67 1,8 C 21,0 km/h (4 Bft)
29.04.2015 11:05 9,1 C 13,2 C 60 % 1017,8 hPa 0,0 mm 11,9 km/h (2 Bft) N-NW 337 1,8 C 21,0 km/h (4 Bft)
29.04.2015 11:10 9,1 C 13,5 C 60 % 1017,8 hPa 0,0 mm 11,4 km/h (2 Bft) N-NO 22 1,8 C 9,8 km/h (2 Bft)
29.04.2015 11:15 8,9 C 12,9 C 59 % 1017,7 hPa 0,0 mm 11,7 km/h (2 Bft) NO 45 1,3 C 29,0 km/h (5 Bft)
29.04.2015 11:20 9,1 C 12,6 C 59 % 1017,7 hPa 0,0 mm 12,7 km/h (3 Bft) O-NO 67 1,5 C 9,3 km/h (2 Bft)
29.04.2015 11:25 9,5 C 13,6 C 58 % 1017,7 hPa 0,0 mm 10,1 km/h (2 Bft) S-SO 157 1,7 C 9,3 km/h (2 Bft)
29.04.2015 11:30 9,6 C 14,1 C 58 % 1017,7 hPa 0,0 mm 9,3 km/h (2 Bft) O-NO 67 1,8 C 17,1 km/h (3 Bft)
29.04.2015 11:35 9,5 C 13,4 C 57 % 1017,4 hPa 0,0 mm 11,1 km/h (2 Bft) O-NO 67 1,4 C 29,3 km/h (5 Bft)
29.04.2015 11:40 9,4 C 12,8 C 56 % 1017,4 hPa 0,0 mm 16,3 km/h (3 Bft) O-NO 67 1,1 C 19,7 km/h (3 Bft)
29.04.2015 11:45 9,6 C 12,4 C 56 % 1017,4 hPa 0,0 mm 15,0 km/h (3 Bft) NO 45 1,3 C 17,9 km/h (3 Bft)
29.04.2015 11:50 9,7 C 12,5 C 56 % 1017,4 hPa 0,0 mm 12,7 km/h (3 Bft) O-SO 112 1,4 C 6,0 km/h (2 Bft)
29.04.2015 11:55 9,8 C 13,1 C 56 % 1017,4 hPa 0,0 mm 10,9 km/h (2 Bft) N-NO 22 1,4 C 12,4 km/h (3 Bft)
29.04.2015 12:00 10,1 C 13,7 C 55 % 1017,4 hPa 0,0 mm 10,4 km/h (2 Bft) NO 45 1,5 C 23,0 km/h (4 Bft)
29.04.2015 12:05 10,0 C 13,3 C 55 % 1017,4 hPa 0,0 mm 12,2 km/h (2 Bft) N-NO 22 1,4 C 28,2 km/h (4 Bft)
29.04.2015 12:10 10,1 C 13,4 C 55 % 1017,4 hPa 0,0 mm 11,9 km/h (2 Bft) NO 45 1,5 C 8,8 km/h (2 Bft)
29.04.2015 12:11 10,6 C 14,2 C 55 % 1017,4 hPa 0,0 mm 10,6 km/h (2 Bft) O-NO 67 1,9 C 13,5 km/h (3 Bft)
29.04.2015 12:16 10,6 C 14,4 C 55 % 1017,4 hPa 0,0 mm 11,4 km/h (2 Bft) NO 45 1,9 C 19,7 km/h (3 Bft)
29.04.2015 12:21 10,7 C 14,4 C 53 % 1017,4 hPa 0,0 mm 14,0 km/h (3 Bft) O-NO 67 1,5 C 22,3 km/h (4 Bft)
29.04.2015 12:26 10,6 C 14,3 C 54 % 1017,4 hPa 0,0 mm 13,5 km/h (3 Bft) O-NO 67 1,7 C 17,3 km/h (3 Bft)
29.04.2015 12:31 10,8 C 14,2 C 54 % 1017,2 hPa 0,0 mm 12,7 km/h (3 Bft) O-NO 67 1,9 C 11,4 km/h (2 Bft)
29.04.2015 12:36 10,8 C 14,7 C 54 % 1017,2 hPa 0,0 mm 10,9 km/h (2 Bft) N-NO 22 1,9 C 15,5 km/h (3 Bft)
29.04.2015 12:41 11,1 C 14,7 C 54 % 1017,2 hPa 0,0 mm 11,4 km/h (2 Bft) NO 45 2,2 C 8,8 km/h (2 Bft)
29.04.2015 12:46 11,3 C 15,2 C 53 % 1017,2 hPa 0,0 mm 10,9 km/h (2 Bft) O-NO 67 2,1 C 8,5 km/h (2 Bft)
29.04.2015 12:51 11,3 C 15,7 C 53 % 1016,9 hPa 0,0 mm 9,3 km/h (2 Bft) O-NO 67 2,1 C 20,7 km/h (4 Bft)
29.04.2015 12:56 11,1 C 14,9 C 53 % 1016,9 hPa 0,0 mm 11,1 km/h (2 Bft) NO 45 1,9 C 8,5 km/h (2 Bft)
29.04.2015 13:01 11,3 C 14,9 C 54 % 1016,9 hPa 0,0 mm 12,2 km/h (2 Bft) O-SO 112 2,3 C 10,4 km/h (2 Bft)
29.04.2015 13:06 11,3 C 14,7 C 54 % 1016,9 hPa 0,0 mm 11,9 km/h (2 Bft) O-SO 112 2,3 C 10,4 km/h (2 Bft)
29.04.2015 13:11 11,4 C 14,4 C 54 % 1016,8 hPa 0,0 mm 11,9 km/h (2 Bft) NW 315 2,4 C 4,7 km/h (1 Bft)
29.04.2015 13:16 11,3 C 13,8 C 55 % 1016,8 hPa 0,0 mm 11,4 km/h (2 Bft) O-NO 67 2,6 C 9,1 km/h (2 Bft)
29.04.2015 13:21 11,5 C 13,8 C 54 % 1016,8 hPa 0,0 mm 11,9 km/h (2 Bft) S-SO 157 2,5 C 14,5 km/h (3 Bft)
29.04.2015 13:26 11,5 C 13,6 C 54 % 1016,8 hPa 0,0 mm 14,0 km/h (3 Bft) NO 45 2,5 C 26,9 km/h (4 Bft)
29.04.2015 13:31 11,7 C 13,5 C 54 % 1016,8 hPa 0,0 mm 13,2 km/h (3 Bft) O-NO 67 2,7 C 7,0 km/h (2 Bft)
29.04.2015 13:34 11,7 C 13,4 C 54 % 1016,8 hPa 0,0 mm 13,2 km/h (3 Bft) O-NO 67 2,7 C 7,0 km/h (2 Bft)
29.04.2015 13:35 11,7 C 13,4 C 54 % 1016,8 hPa 0,0 mm 13,2 km/h (3 Bft) O-NO 67 2,7 C 7,0 km/h (2 Bft)
29.04.2015 13:36 11,8 C 14,3 C 54 % 1016,4 hPa 0,0 mm 12,2 km/h (2 Bft) NO 45 2,8 C 16,3 km/h (3 Bft)
29.04.2015 13:41 11,6 C 14,5 C 53 % 1016,4 hPa 0,0 mm 12,4 km/h (3 Bft) O-SO 112 2,4 C 13,2 km/h (3 Bft)
29.04.2015 13:50 11,7 C 14,9 C 54 % 1016,4 hPa 0,0 mm 12,4 km/h (3 Bft) NO 45 2,7 C 10,6 km/h (2 Bft)
29.04.2015 13:51 12,0 C 15,1 C 54 % 1016,4 hPa 0,0 mm 11,7 km/h (2 Bft) N-NO 22 3,0 C 14,2 km/h (3 Bft)
29.04.2015 13:56 12,1 C 15,5 C 54 % 1016,2 hPa 0,0 mm 11,1 km/h (2 Bft) N-NW 337 3,1 C 13,2 km/h (3 Bft)
29.04.2015 14:03 12,3 C 15,6 C 54 % 1016,2 hPa 0,0 mm 11,9 km/h (2 Bft) NO 45 3,3 C 10,4 km/h (2 Bft)
29.04.2015 14:05 12,3 C 15,6 C 54 % 1016,2 hPa 0,0 mm 11,9 km/h (2 Bft) NO 45 3,3 C 10,4 km/h (2 Bft)
29.04.2015 14:10 12,3 C 15,7 C 55 % 1016,2 hPa 0,0 mm 12,7 km/h (3 Bft) O-NO 67 3,5 C 14,5 km/h (3 Bft)
29.04.2015 14:15 12,7 C 15,7 C 54 % 1016,2 hPa 0,0 mm 12,2 km/h (2 Bft) SO 135 3,6 C 11,1 km/h (2 Bft)
29.04.2015 14:20 12,5 C 15,9 C 52 % 1015,9 hPa 0,0 mm 11,9 km/h (2 Bft) O-SO 112 2,9 C 10,9 km/h (2 Bft)
29.04.2015 14:25 12,6 C 16,4 C 53 % 1015,9 hPa 0,0 mm 12,7 km/h (3 Bft) O-NO 67 3,3 C 13,7 km/h (3 Bft)
29.04.2015 14:30 12,8 C 16,6 C 53 % 1015,9 hPa 0,0 mm 10,9 km/h (2 Bft) SW 225 3,5 C 6,5 km/h (2 Bft)
29.04.2015 14:35 12,8 C 16,7 C 53 % 1015,9 hPa 0,0 mm 11,7 km/h (2 Bft) N-NO 22 3,5 C 9,1 km/h (2 Bft)
29.04.2015 14:40 12,7 C 16,1 C 53 % 1015,8 hPa 0,0 mm 11,4 km/h (2 Bft) O-NO 67 3,4 C 7,5 km/h (2 Bft)
29.04.2015 14:45 12,9 C 16,2 C 53 % 1015,8 hPa 0,0 mm 12,4 km/h (3 Bft) N-NO 22 3,6 C 22,3 km/h (4 Bft)
29.04.2015 14:50 12,9 C 16,2 C 53 % 1015,8 hPa 0,0 mm 11,7 km/h (2 Bft) O 90 3,6 C 18,1 km/h (3 Bft)
29.04.2015 14:55 13,0 C 16,4 C 51 % 1015,8 hPa 0,0 mm 11,7 km/h (2 Bft) N-NO 22 3,1 C 11,1 km/h (2 Bft)
29.04.2015 15:00 13,0 C 16,7 C 51 % 1015,4 hPa 0,0 mm 10,6 km/h (2 Bft) NO 45 3,1 C 14,0 km/h (3 Bft)
29.04.2015 15:05 12,8 C 16,5 C 52 % 1015,4 hPa 0,0 mm 10,6 km/h (2 Bft) N-NW 337 3,2 C 12,4 km/h (3 Bft)
29.04.2015 15:15 13,0 C 16,1 C 51 % 1015,4 hPa 0,0 mm 11,4 km/h (2 Bft) N 360 3,1 C 13,5 km/h (3 Bft)
29.04.2015 15:20 13,2 C 16,3 C 51 % 1015,2 hPa 0,0 mm 11,7 km/h (2 Bft) N 360 3,3 C 10,4 km/h (2 Bft)
29.04.2015 15:25 13,3 C 16,7 C 50 % 1015,2 hPa 0,0 mm 12,7 km/h (3 Bft) O-NO 67 3,1 C 15,8 km/h (3 Bft)
29.04.2015 15:30 13,3 C 16,6 C 50 % 1015,2 hPa 0,0 mm 11,9 km/h (2 Bft) NO 45 3,1 C 11,4 km/h (2 Bft)
29.04.2015 15:35 13,5 C 16,9 C 50 % 1015,2 hPa 0,0 mm 10,9 km/h (2 Bft) O-NO 67 3,3 C 12,7 km/h (3 Bft)
29.04.2015 15:40 13,3 C 17,2 C 50 % 1014,9 hPa 0,0 mm 8,8 km/h (2 Bft) O-NO 67 3,1 C 6,2 km/h (2 Bft)
29.04.2015 15:45 13,2 C 16,9 C 50 % 1014,9 hPa 0,0 mm 10,1 km/h (2 Bft) NO 45 3,0 C 12,2 km/h (2 Bft)
29.04.2015 15:50 13,1 C 16,7 C 50 % 1014,9 hPa 0,0 mm 8,8 km/h (2 Bft) O-NO 67 2,9 C 3,9 km/h (1 Bft)
29.04.2015 15:55 13,2 C 16,9 C 50 % 1014,9 hPa 0,0 mm 8,0 km/h (2 Bft) N-NO 22 3,0 C 5,2 km/h (1 Bft)
29.04.2015 16:00 13,2 C 17,1 C 50 % 1014,8 hPa 0,0 mm 7,3 km/h (2 Bft) N-NO 22 3,0 C 10,9 km/h (2 Bft)
29.04.2015 16:05 13,3 C 17,3 C 52 % 1014,8 hPa 0,0 mm 7,8 km/h (2 Bft) O-NO 67 3,7 C 11,7 km/h (2 Bft)
29.04.2015 16:15 13,1 C 16,3 C 51 % 1014,8 hPa 0,0 mm 9,3 km/h (2 Bft) SO 135 3,2 C 9,3 km/h (2 Bft)
29.04.2015 16:20 13,3 C 17,3 C 52 % 1014,6 hPa 0,0 mm 9,6 km/h (2 Bft) N-NO 22 3,7 C 13,5 km/h (3 Bft)
29.04.2015 16:25 13,2 C 17,3 C 51 % 1014,6 hPa 0,0 mm 10,6 km/h (2 Bft) N-NO 22 3,3 C 17,9 km/h (3 Bft)
29.04.2015 16:30 13,1 C 17,1 C 52 % 1014,6 hPa 0,0 mm 11,1 km/h (2 Bft) N-NO 22 3,5 C 14,8 km/h (3 Bft)
29.04.2015 16:35 12,9 C 16,7 C 53 % 1014,6 hPa 0,0 mm 11,1 km/h (2 Bft) NO 45 3,6 C 6,0 km/h (2 Bft)
29.04.2015 16:40 12,9 C 16,7 C 53 % 1014,5 hPa 0,0 mm 10,1 km/h (2 Bft) O-SO 112 3,6 C 5,2 km/h (1 Bft)
29.04.2015 16:45 12,9 C 16,2 C 54 % 1014,5 hPa 0,0 mm 9,3 km/h (2 Bft) O-NO 67 3,8 C 10,9 km/h (2 Bft)
29.04.2015 16:50 12,9 C 15,7 C 54 % 1014,5 hPa 0,0 mm 8,5 km/h (2 Bft) N-NO 22 3,8 C 13,2 km/h (3 Bft)
29.04.2015 16:55 12,9 C 15,5 C 53 % 1014,5 hPa 0,0 mm 10,1 km/h (2 Bft) N-NO 22 3,6 C 14,0 km/h (3 Bft)
29.04.2015 17:00 12,9 C 15,0 C 53 % 1014,3 hPa 0,0 mm 10,9 km/h (2 Bft) O-NO 67 3,6 C 17,1 km/h (3 Bft)
29.04.2015 17:05 12,8 C 14,6 C 53 % 1014,3 hPa 0,0 mm 11,1 km/h (2 Bft) O-NO 67 3,5 C 13,2 km/h (3 Bft)
29.04.2015 17:10 12,8 C 14,3 C 54 % 1014,3 hPa 0,0 mm 11,1 km/h (2 Bft) O-NO 67 3,7 C 9,3 km/h (2 Bft)
29.04.2015 17:15 12,9 C 14,6 C 54 % 1014,3 hPa 0,0 mm 9,3 km/h (2 Bft) NO 45 3,8 C 5,2 km/h (1 Bft)
29.04.2015 17:20 12,9 C 14,6 C 54 % 1014,3 hPa 0,0 mm 8,3 km/h (2 Bft) W-SW 247 3,8 C 13,2 km/h (3 Bft)
29.04.2015 17:25 12,8 C 14,3 C 54 % 1014,3 hPa 0,0 mm 9,6 km/h (2 Bft) NO 45 3,7 C 11,1 km/h (2 Bft)
29.04.2015 17:30 12,8 C 14,2 C 54 % 1014,3 hPa 0,0 mm 10,4 km/h (2 Bft) O 90 3,7 C 14,0 km/h (3 Bft)
29.04.2015 17:35 12,9 C 14,2 C 54 % 1014,3 hPa 0,0 mm 10,6 km/h (2 Bft) N-NW 337 3,8 C 8,3 km/h (2 Bft)
29.04.2015 17:40 12,8 C 14,3 C 54 % 1014,1 hPa 0,0 mm 10,1 km/h (2 Bft) O-NO 67 3,7 C 12,4 km/h (3 Bft)
29.04.2015 17:45 12,9 C 14,3 C 54 % 1014,1 hPa 0,0 mm 9,1 km/h (2 Bft) N-NO 22 3,8 C 8,5 km/h (2 Bft)
29.04.2015 17:50 12,9 C 14,3 C 54 % 1014,1 hPa 0,0 mm 8,8 km/h (2 Bft) O-NO 67 3,8 C 9,1 km/h (2 Bft)
29.04.2015 17:55 12,8 C 14,3 C 54 % 1014,1 hPa 0,0 mm 8,0 km/h (2 Bft) O-NO 67 3,7 C 15,0 km/h (3 Bft)
29.04.2015 18:00 12,9 C 14,2 C 54 % 1014,1 hPa 0,0 mm 8,8 km/h (2 Bft) NO 45 3,8 C 17,9 km/h (3 Bft)
29.04.2015 18:05 12,8 C 13,6 C 53 % 1014,1 hPa 0,0 mm 11,1 km/h (2 Bft) NO 45 3,5 C 12,9 km/h (3 Bft)
29.04.2015 18:15 12,7 C 13,9 C 54 % 1014,1 hPa 0,0 mm 9,3 km/h (2 Bft) O-NO 67 3,6 C 12,4 km/h (3 Bft)
29.04.2015 18:20 12,8 C 14,6 C 54 % 1014,0 hPa 0,0 mm 8,3 km/h (2 Bft) O-SO 112 3,7 C 14,2 km/h (3 Bft)
29.04.2015 18:25 12,8 C 14,4 C 54 % 1014,0 hPa 0,0 mm 8,3 km/h (2 Bft) O-NO 67 3,7 C 6,0 km/h (2 Bft)
29.04.2015 18:30 12,8 C 14,3 C 54 % 1014,0 hPa 0,0 mm 8,3 km/h (2 Bft) NO 45 3,7 C 11,9 km/h (2 Bft)
29.04.2015 18:35 12,7 C 14,2 C 54 % 1014,0 hPa 0,0 mm 8,0 km/h (2 Bft) O 90 3,6 C 9,8 km/h (2 Bft)
29.04.2015 18:40 12,6 C 14,0 C 54 % 1013,7 hPa 0,0 mm 9,3 km/h (2 Bft) N-NO 22 3,5 C 17,1 km/h (3 Bft)
29.04.2015 18:45 12,7 C 13,8 C 54 % 1013,7 hPa 0,7 mm 9,6 km/h (2 Bft) NO 45 3,6 C 6,7 km/h (2 Bft)
29.04.2015 18:50 12,6 C 13,7 C 54 % 1013,7 hPa 0,0 mm 8,5 km/h (2 Bft) NO 45 3,5 C 8,8 km/h (2 Bft)
29.04.2015 18:55 12,5 C 13,5 C 54 % 1013,7 hPa 0,0 mm 8,8 km/h (2 Bft) O-NO 67 3,5 C 10,9 km/h (2 Bft)
29.04.2015 19:00 12,3 C 13,1 C 54 % 1013,8 hPa 0,0 mm 9,8 km/h (2 Bft) N-NO 22 3,3 C 6,5 km/h (2 Bft)
29.04.2015 19:05 12,0 C 12,4 C 54 % 1013,8 hPa 0,0 mm 11,1 km/h (2 Bft) O-NO 67 3,0 C 15,0 km/h (3 Bft)
29.04.2015 19:10 12,0 C 12,4 C 54 % 1013,8 hPa 0,0 mm 10,6 km/h (2 Bft) N-NO 22 3,0 C 7,8 km/h (2 Bft)
29.04.2015 19:15 11,9 C 12,8 C 55 % 1013,8 hPa 0,0 mm 9,6 km/h (2 Bft) NO 45 3,2 C 6,7 km/h (2 Bft)
29.04.2015 19:20 11,8 C 12,7 C 55 % 1013,8 hPa 0,0 mm 8,3 km/h (2 Bft) NO 45 3,1 C 4,4 km/h (1 Bft)
29.04.2015 19:25 11,4 C 12,5 C 56 % 1013,8 hPa 0,0 mm 6,2 km/h (2 Bft) O-NO 67 2,9 C 0,0 km/h (0 Bft)
29.04.2015 19:30 11,4 C 12,3 C 56 % 1013,8 hPa 0,0 mm 2,6 km/h (1 Bft) O-NO 67 2,9 C 3,1 km/h (1 Bft)
29.04.2015 19:35 11,1 C 12,2 C 57 % 1013,8 hPa 0,0 mm 3,1 km/h (1 Bft) NO 45 2,9 C 3,1 km/h (1 Bft)
29.04.2015 19:40 10,8 C 11,7 C 57 % 1013,8 hPa 0,0 mm 1,8 km/h (1 Bft) NO 45 2,6 C 3,9 km/h (1 Bft)
29.04.2015 19:45 10,5 C 11,1 C 58 % 1013,8 hPa 0,0 mm 1,0 km/h (0 Bft) S 180 2,6 C 3,4 km/h (1 Bft)
29.04.2015 19:50 10,3 C 10,6 C 58 % 1013,8 hPa 0,0 mm 1,0 km/h (0 Bft) NO 45 2,4 C 3,1 km/h (1 Bft)
29.04.2015 19:55 10,1 C 10,4 C 58 % 1013,8 hPa 0,0 mm 0,5 km/h (0 Bft) S-SO 157 2,2 C 0,0 km/h (0 Bft)
29.04.2015 20:00 10,0 C 10,1 C 58 % 1013,8 hPa 0,0 mm 0,3 km/h (0 Bft) O-SO 112 2,1 C 0,0 km/h (0 Bft)
29.04.2015 20:05 9,7 C 9,7 C 59 % 1013,8 hPa 0,0 mm 0,0 km/h (0 Bft) O-SO 112 2,1 C 0,0 km/h (0 Bft)
29.04.2015 20:10 9,5 C 9,5 C 59 % 1013,8 hPa 0,0 mm 0,3 km/h (0 Bft) SO 135 1,9 C 0,0 km/h (0 Bft)
29.04.2015 20:15 9,4 C 9,3 C 60 % 1013,8 hPa 0,0 mm 0,0 km/h (0 Bft) SO 135 2,0 C 0,0 km/h (0 Bft)
29.04.2015 20:20 9,1 C 9,0 C 61 % 1013,8 hPa 0,0 mm 0,3 km/h (0 Bft) SO 135 2,0 C 0,0 km/h (0 Bft)
29.04.2015 20:25 8,9 C 8,8 C 62 % 1013,8 hPa 0,0 mm 0,8 km/h (0 Bft) SO 135 2,0 C 3,6 km/h (1 Bft)
29.04.2015 20:30 8,8 C 8,6 C 63 % 1013,8 hPa 0,0 mm 0,8 km/h (0 Bft) SO 135 2,2 C 0,0 km/h (0 Bft)
29.04.2015 20:35 8,7 C 8,5 C 63 % 1013,8 hPa 0,0 mm 0,8 km/h (0 Bft) SO 135 2,1 C 2,6 km/h (1 Bft)
29.04.2015 20:40 8,6 C 8,4 C 64 % 1014,0 hPa 0,0 mm 0,3 km/h (0 Bft) SO 135 2,2 C 2,6 km/h (1 Bft)
29.04.2015 20:45 8,5 C 8,3 C 64 % 1014,0 hPa 0,0 mm 0,8 km/h (0 Bft) S-SO 157 2,1 C 4,1 km/h (1 Bft)
29.04.2015 20:50 8,4 C 8,2 C 65 % 1014,0 hPa 0,0 mm 0,8 km/h (0 Bft) SO 135 2,2 C 2,6 km/h (1 Bft)
29.04.2015 20:55 8,2 C 8,0 C 65 % 1014,0 hPa 0,0 mm 0,8 km/h (0 Bft) SO 135 2,0 C 0,0 km/h (0 Bft)
29.04.2015 21:00 7,4 C 7,3 C 66 % 1014,1 hPa 0,0 mm 0,0 km/h (0 Bft) S-SO 157 1,5 C 0,0 km/h (0 Bft)
29.04.2015 21:05 7,4 C 7,1 C 68 % 1014,1 hPa 0,0 mm 0,0 km/h (0 Bft) S-SO 157 1,9 C 0,0 km/h (0 Bft)
29.04.2015 21:10 7,4 C 7,0 C 68 % 1014,1 hPa 0,0 mm 0,0 km/h (0 Bft) S-SO 157 1,9 C 0,0 km/h (0 Bft)
29.04.2015 21:15 7,3 C 6,9 C 68 % 1014,1 hPa 0,0 mm 0,0 km/h (0 Bft) S-SO 157 1,8 C 0,0 km/h (0 Bft)
29.04.2015 21:20 7,2 C 6,8 C 69 % 1014,2 hPa 0,0 mm 0,0 km/h (0 Bft) S-SO 157 1,9 C 0,0 km/h (0 Bft)
29.04.2015 21:25 6,7 C 6,6 C 70 % 1014,2 hPa 0,0 mm 0,0 km/h (0 Bft) S-SO 157 1,6 C 0,0 km/h (0 Bft)
29.04.2015 21:30 6,6 C 6,6 C 70 % 1014,2 hPa 0,0 mm 0,3 km/h (0 Bft) S-SO 157 1,5 C 0,0 km/h (0 Bft)
29.04.2015 21:35 6,5 C 6,4 C 71 % 1014,2 hPa 0,0 mm 0,3 km/h (0 Bft) SO 135 1,6 C 0,0 km/h (0 Bft)
29.04.2015 21:40 6,0 C 6,1 C 71 % 1014,1 hPa 0,0 mm 0,0 km/h (0 Bft) SO 135 1,1 C 0,0 km/h (0 Bft)
29.04.2015 21:45 5,7 C 6,0 C 74 % 1014,1 hPa 0,0 mm 0,0 km/h (0 Bft) O-SO 112 1,4 C 0,0 km/h (0 Bft)
29.04.2015 21:50 5,8 C 5,8 C 75 % 1014,1 hPa 0,0 mm 0,0 km/h (0 Bft) SO 135 1,7 C 0,0 km/h (0 Bft)
29.04.2015 21:55 5,8 C 5,8 C 75 % 1014,1 hPa 0,0 mm 0,0 km/h (0 Bft) S 180 1,7 C 0,0 km/h (0 Bft)
29.04.2015 22:00 5,9 C 5,8 C 76 % 1014,1 hPa 0,0 mm 0,0 km/h (0 Bft) S-SO 157 2,0 C 0,0 km/h (0 Bft)
29.04.2015 22:05 5,6 C 5,4 C 75 % 1014,1 hPa 0,0 mm 0,0 km/h (0 Bft) SO 135 1,5 C 0,0 km/h (0 Bft)
29.04.2015 22:10 5,4 C 5,3 C 76 % 1014,1 hPa 0,0 mm 0,0 km/h (0 Bft) O-SO 112 1,5 C 0,0 km/h (0 Bft)
29.04.2015 22:15 5,6 C 5,4 C 76 % 1014,1 hPa 0,0 mm 0,3 km/h (0 Bft) SO 135 1,7 C 0,0 km/h (0 Bft)
29.04.2015 22:20 5,5 C 5,2 C 79 % 1014,6 hPa 0,0 mm 0,3 km/h (0 Bft) NO 45 2,2 C 0,0 km/h (0 Bft)
29.04.2015 22:25 5,0 C 4,7 C 78 % 1014,6 hPa 0,0 mm 0,0 km/h (0 Bft) O-SO 112 1,5 C 0,0 km/h (0 Bft)
29.04.2015 22:30 5,1 C 4,7 C 78 % 1014,6 hPa 0,0 mm 0,8 km/h (0 Bft) O 90 1,6 C 0,0 km/h (0 Bft)
29.04.2015 22:35 5,1 C 4,8 C 78 % 1014,6 hPa 0,0 mm 1,8 km/h (1 Bft) S 180 1,6 C 7,8 km/h (2 Bft)
29.04.2015 22:40 5,5 C 5,2 C 80 % 1014,4 hPa 0,0 mm 4,4 km/h (1 Bft) S-SO 157 2,3 C 3,9 km/h (1 Bft)
29.04.2015 22:45 5,4 C 5,3 C 77 % 1014,4 hPa 0,0 mm 3,4 km/h (1 Bft) S 180 1,7 C 0,0 km/h (0 Bft)
29.04.2015 22:50 5,3 C 5,1 C 80 % 1014,4 hPa 0,0 mm 1,6 km/h (1 Bft) S-SO 157 2,1 C 0,0 km/h (0 Bft)
29.04.2015 22:55 5,1 C 4,9 C 80 % 1014,4 hPa 0,0 mm 0,8 km/h (0 Bft) SO 135 1,9 C 0,0 km/h (0 Bft)
29.04.2015 23:00 4,6 C 4,4 C 79 % 1014,4 hPa 0,0 mm 0,0 km/h (0 Bft) O-NO 67 1,3 C 0,0 km/h (0 Bft)
29.04.2015 23:05 5,0 C 4,7 C 78 % 1014,4 hPa 0,0 mm 1,8 km/h (1 Bft) S 180 1,5 C 6,0 km/h (2 Bft)
29.04.2015 23:10 5,3 C 5,0 C 81 % 1014,4 hPa 0,0 mm 3,1 km/h (1 Bft) S 180 2,3 C 3,1 km/h (1 Bft)
29.04.2015 23:15 5,6 C 5,3 C 81 % 1014,4 hPa 0,0 mm 3,9 km/h (1 Bft) S 180 2,6 C 9,8 km/h (2 Bft)
29.04.2015 23:20 5,6 C 5,5 C 80 % 1014,5 hPa 0,0 mm 3,9 km/h (1 Bft) O-NO 67 2,4 C 0,0 km/h (0 Bft)
29.04.2015 23:25 5,4 C 5,3 C 80 % 1014,5 hPa 0,0 mm 2,6 km/h (1 Bft) S-SW 202 2,2 C 7,8 km/h (2 Bft)
29.04.2015 23:30 5,7 C 5,6 C 78 % 1014,5 hPa 0,0 mm 3,4 km/h (1 Bft) S 180 2,2 C 5,4 km/h (1 Bft)
29.04.2015 23:35 5,9 C 5,7 C 80 % 1014,5 hPa 0,0 mm 5,7 km/h (1 Bft) S 180 2,7 C 9,3 km/h (2 Bft)
29.04.2015 23:40 6,0 C 5,6 C 79 % 1014,8 hPa 0,0 mm 8,0 km/h (2 Bft) S-SW 202 2,6 C 10,6 km/h (2 Bft)
29.04.2015 23:41 6,1 C 5,7 C 78 % 1014,8 hPa 0,0 mm 9,1 km/h (2 Bft) S-SW 202 2,6 C 4,1 km/h (1 Bft)
29.04.2015 23:46 6,3 C 5,8 C 78 % 1014,8 hPa 0,0 mm 8,5 km/h (2 Bft) SW 225 2,8 C 6,7 km/h (2 Bft)
29.04.2015 23:51 6,5 C 6,1 C 78 % 1014,8 hPa 0,0 mm 8,3 km/h (2 Bft) S 180 2,9 C 9,8 km/h (2 Bft)
29.04.2015 23:56 6,8 C 6,3 C 77 % 1014,8 hPa 0,0 mm 8,5 km/h (2 Bft) W-SW 247 3,1 C 9,1 km/h (2 Bft)
_ Min-Zeit 06:20 06:15 16:00 18:55 - 23:00 - - 06:25 23:20
Minimum _ -1,2 C -1,7 C 50 % 1013,7 hPa - 0,0 km/h (0 Bft) - - -2,8 C 0,0 km/h (0 Bft)
_ Max-Zeit 15:35 16:25 07:50 00:50 18:45 11:40 - - 08:35 11:35
Maximum _ 13,5 C 17,3 C 91 % 1019,9 hPa 0,7 mm 16,3 km/h
O-NO (3 Bft)
- - 4,1 C 29,3 km/h
O-NO (5 Bft)
Durchschnitt _ 6,7 C 8,3 C 71 % 1016,7 hPa #1,4 mm 5,1 km/h (1 Bft) O-NO - 1,3 C 6,3 km/h (2 Bft)